Regional Weather Roundup
Issued by NWS

Home | Current Version | Previous Version | Graphics & Text | Print | Product List | Glossary On
Versions: 1 2 3 4 5 6 7 8 9 10 11 12 13 14 15 16 17 18 19 20 21 22 23 24 25 26 27 28 29 30 31 32 33 34 35 36 37 38 39 40 41 42 43 44 45 46 47 48 49 50
000
ASUS43 KMKX 302011
RWRWI

WISCONSIN REGIONAL WEATHER ROUNDUP
NATIONAL WEATHER SERVICE MILWAUKEE/SULLIVAN WI
300 PM CDT SUN AUG 30 2015

NOTE: "FAIR" INDICATES FEW OR NO CLOUDS BELOW 12,000 FEET WITH NO
SIGNIFICANT WEATHER AND/OR OBSTRUCTIONS TO VISIBILITY.

WIZ001-002-006>008-014>016-023>028-302100-
NORTHWEST WISCONSIN

CITY           SKY/WX    TMP DP  RH WIND       PRES   REMARKS
SUPERIOR ARPT  SUNNY     82  69  65 SW12      29.87F HX  85
ASHLAND        MOSUNNY   82  64  54 SW12G18   29.90F HX  83
HAYWARD        SUNNY     78  61  55 S14       29.96F HX  80
SIREN          SUNNY     80  64  57 S8        29.94F HX  81
CUMBERLAND     SUNNY     73  63  68 S9        29.98S
RICE LAKE      SUNNY     75  63  66 S12G17    30.00S
CHETEK         SUNNY    N/A N/A N/A S9        29.99F
LADYSMITH      SUNNY     77  64  64 S10       30.01S
EAU CLAIRE     SUNNY     75  62  64 S10       29.99F
MENOMONIE      SUNNY     77  65  65 SE10      30.00S
NEW RICHMOND   SUNNY     78  63  60 S13       29.97F HX  80
OSCEOLA        SUNNY     79  64  60 S10       29.98F HX  80
$$

WIZ003>005-009-010-017-018-302100-
NORTH CENTRAL WISCONSIN

CITY           SKY/WX    TMP DP  RH WIND       PRES   REMARKS
MANITOWISH WTR SUNNY     78  63  60 SW12G17   29.97F HX  80
ARBOR VITAE    MOSUNNY   77  65  65 S13       29.98F
WOODRUFF       MOSUNNY   77  65  65 S13       29.98F
RHINELANDER    NOT AVBL
EAGLE RIVER    MOSUNNY   75  60  58 SW9       29.99F
LAND O LAKES   MOSUNNY   78  61  55 S9        29.98F
PHILLIPS       SUNNY     77  65  67 S12       29.99S
TOMAHAWK       MOSUNNY   76  63  64 S5        30.01F
MEDFORD        SUNNY     73  65  74 SW9G16    30.02F
MERRILL        SUNNY     76  64  67 SW9       30.02F
$$

WIZ029-030-035-036-043>047-302100-
CENTRAL WISCONSIN

CITY           SKY/WX    TMP DP  RH WIND       PRES   REMARKS
WAUSAU         SUNNY     76  63  64 SW9       30.01F
MOSINEE        SUNNY     75  64  69 SW12      30.03
MARSHFIELD     SUNNY     77  62  59 SW9       30.03F
STEVENS POINT  SUNNY     74  62  66 SW9       30.03F
WAUPACA        MOSUNNY   76  63  64 S8        30.03F
WAUTOMA        MOSUNNY   76  64  66 SW7       30.04F
WISC RAPIDS    SUNNY     76  61  59 S9        30.04F
CAMP DOUGLAS   PTSUNNY   77  70  78 SW6       30.03F
$$

WIZ011>013-019>022-031-037>040-048>050-302100-
NORTHEAST WISCONSIN

CITY           SKY/WX    TMP DP  RH WIND       PRES   REMARKS
ANTIGO         SUNNY     75  63  64 SW8       30.03F
SHAWANO        SUNNY     76  64  65 SW7       30.01F
OCONTO         SUNNY     75  64  70 SW9       30.00F
STURGEON BAY   MOSUNNY   72  63  73 SW8       30.03F
GREEN BAY      PTSUNNY   73  64  73 SW12      30.02F
MANITOWOC      CLOUDY    73  63  70 MISG      30.04F
APPLETON       PTSUNNY   72  61  68 SW9       30.02F
CLINTONVILLE   MOSUNNY   73  61  64 SW8G16    30.02F
OSHKOSH        MOSUNNY   72  62  71 SW6       30.04F
$$

WIZ032>034-041-042-053>061-302100-
SOUTHWEST WISCONSIN

CITY           SKY/WX    TMP DP  RH WIND       PRES   REMARKS
LA CROSSE      CLOUDY    74  64  71 S9        30.02F
SPARTA         PTSUNNY   74  61  64 S7        30.04F
VIROQUA          N/A     72  62  71 S7        30.06F
BOSCOBEL       PTSUNNY   75  63  66 VRB7      30.05F
PRAIRIE DU CHI PTSUNNY   73  61  65 CALM      30.05F
PLATTEVILLE    MOSUNNY   73  65  76 S5        30.06F
$$

WIZ056-057-062-063-064-067-068-302100-
SOUTH CENTRAL WISCONSIN

CITY           SKY/WX    TMP DP  RH WIND       PRES   REMARKS
REEDSBURG      SUNNY     74  64  70 SW7       30.04F
BARABOO/DELLS  SUNNY     74  61  63 SW5       30.04F
LONE ROCK      PTSUNNY   75  63  66 VRB3      30.04F
MINERAL POINT  MOSUNNY   75  63  64 SW6       30.06F
MADISON        PTSUNNY   73  62  68 VRB3      30.04F
MIDDLETON      SUNNY     76  62  62 W6        30.05F
WATERTOWN      PTSUNNY   72  65  79 SW7       30.05F
MONROE         MOSUNNY   72  63  73 S5        30.06F
JANESVILLE     MOSUNNY   75  63  64 CALM      30.05F
$$

WIZ051-052-058>065-066-070>072-302100-
SOUTHEAST WISCONSIN

CITY           SKY/WX    TMP DP  RH WIND       PRES   REMARKS
MILWAUKEE      PTSUNNY   71  63  75 SE8       30.05F
WAUKESHA       MOSUNNY   70  61  73 S5        30.06F
MILWAUKEE/TIMM MOSUNNY   73  61  64 SW5       30.06F
RACINE         CLOUDY    70  61  73 SE7       30.07S
BURLINGTON     MOSUNNY   73  60  64 W3        30.05F
KENOSHA        CLOUDY    73  63  70 S5        30.06F
FOND DU LAC    MOSUNNY   73  63  70 SW9       30.04F
SHEBOYGAN      MOSUNNY   73  63  70 SW6       30.04F
WEST BEND      PTSUNNY   72  61  68 CALM      30.05F
JUNEAU         SUNNY     70  62  75 SW5       30.06F
$$

LSZ147-162-302100-
LAKE SUPERIOR

STATION/POSITION TIME  TEMP    WIND        PRES    WAVE
                       AIR SEA DIR/SP/G            HT/PER
                 (UTC) (F)     (DEG/KT/KT) (MB)    (FT/S)
W MID LAKE BUOY  1950   59 55  230/  6/  6 1011.6F   1/ 3
DEVILS ISLAND    2000   64     230/  8/ 10 1011.5F
PORT WING        1900   80     220/ 11/ 14 1012.2F
SAXON HARBOR     1900   82     200/  8/ 16 1011.9F
$$

LMZ867-665-643>646-302100-
LAKE MICHIGAN

STATION/POSITION TIME  TEMP    WIND        PRES    WAVE
                       AIR SEA DIR/SP/G            HT/PER
                 (UTC) (F)     (DEG/KT/KT) (MB)    (FT/S)
CHAMBERS ISLAND  1900   69     180/  7/ 15 1016.3F
S GREEN BAY BUOY 1800   67 64  210/  8/ 10 1018.7
N MID LAKE BUOY  1950   65 65  200/ 16/ 17 1015.7F   2/ 3
NORTHPORT PIER   1900   68     160/  8/ 12 1016.3F
SHEBOYGAN LAKESH 2000   60     170/ 11/ 11 1017.4F
PORT WASHINGTON  1940   64     180/  2/  5 1018.3F
ATWATER BUOY     2000   60 53  140/  2/  2 1018.8F
MILWAUKEE LAKESH 1900   59     160/  1/  2   N/A
S MID LAKE BUOY  1950   66 69  340/  6/  6 1017.7F   1
KENOSHA   LAKESH 2000   62     130/  5/  6 1017.3F
$$

TC  - TEMPERATURE IN CELSIUS
VSB - VISIBILITY IN STATUTE MILES
WCI - WIND CHILL INDEX
HX  - HEAT INDEX



USA.gov is the U.S. government's official web portal to all federal, state and local government web resources and services.